Airfield :
LOGIN :

Register | Disclaimer

   EN    FR    IT 

 










Legend :    VFR   Marginal VFR   IFR   Intensive IFR   Very Intensive IFR
Visi :
Ceiling :
>= 8 km
>= 3000ft
5 to 8 km
1000 to 3000 ft
1500m to 5 km
500 to 1000 ft
800 to 1500m
200 to 500 ft
< 800m
< 200 ft
Symbols :   Thunderstorms  Fog  Heavy snow  Heavy precipitations  Wind > 20 kt
SIGMETs :     Misc.  Thunderstorms  Icing  Turbulence  Mountain Waves  Volcanic Ashes







- Airport Elevation : 1487 ft
- IATA code : MUC


EDDM - München Franz Josef Strauss

CURRENT METAR :
  • 170720Z 10004KT 050V150 CAVOK 20/16 Q1021 NOSIG

EXPIRED METARs :
  • 170650Z 09004KT CAVOK 19/16 Q1020 NOSIG
  • 170620Z 08003KT 040V100 CAVOK 18/16 Q1021 NOSIG
  • 170550Z VRB01KT 8000 NSC 17/15 Q1021 NOSIG
  • 170520Z 05001KT 8000 BCFG NSC 15/15 Q1020 NOSIG
  • 170450Z 08003KT 8000 1600NE R08L/0750VP2000U BCFG NSC 14/13 Q1020 NOSIG

TAF TAF EDDM
Valid from the 17 at 06:00 until the 18 at 12:00 UTC


170500Z 1706/1812 VRB03KT 9999 FEW040
BECMG 1710/1712 28005KT
BECMG 1717/1719 VRB02KT
PROB30
TEMPO 1718/1722 29015G30KT TSRA SCT035CB
PROB30
TEMPO 1803/1806 2000 BCFG
No reported NOTAMs for that airfield.



MET'MAP, your aeronautical weather chart ! - Copyright ORBIFLY December 2007 - Disclaimer

ORBIFLY MET'MAP TEAM :

Programming & Development : Alexandra Zaïnal
Concept & Development : Baudouin d'Aumeries
Co-Development & Prog : Marc-Olivier Méhu
Technical & hardware support : Manuel Goepfert

Contact : metmap@orbifly.com




SOURCES & CREDITS :

   NOAA